Location: Clinton NY
(43.0598°N, 75.3602°W)
Time: 11:32:01
(UTC-05:00)

Iridium 11 - Visible Passes

Search period start: 02 March 2015 00:00
Search period end: 12 March 2015 01:00
Orbit: 776 x 779 km, 86.4° (Epoch: 01 March)

Date Brightness Start Highest point End Pass type
(mag) Time Alt. Az. Time Alt. Az. Time Alt. Az.
02 Mar 8.3 04:42:41 10° SE 04:46:18 20° E 04:50:06 10° NE visible
02 Mar 8.4 18:31:51 10° NNW 18:35:51 22° W 18:39:43 10° SW visible
03 Mar 8.9 04:11:59 10° E 04:13:05 11° ENE 04:14:31 10° ENE visible
03 Mar 5.6 05:47:54 10° S 05:53:07 89° W 05:58:22 10° N visible
04 Mar 6.5 05:14:38 10° SSE 05:19:38 50° E 05:24:42 10° NNE visible
05 Mar 7.6 04:41:57 10° SE 04:46:16 28° E 04:50:43 10° NNE visible
05 Mar 8.6 18:32:42 10° NW 18:35:48 16° W 18:38:40 10° WSW visible
06 Mar 8.5 04:10:03 10° ESE 04:12:59 16° E 04:16:10 10° NE visible
06 Mar 5.5 05:48:04 10° SSW 05:53:14 63° W 05:58:26 10° N visible
07 Mar 5.8 05:14:31 10° S 05:19:41 73° E 05:24:55 10° N visible
08 Mar 6.9 05:41:28 10° SSE 05:46:15 40° E 05:51:08 10° NNE visible
08 Mar 9.1 19:34:30 10° WNW 19:35:42 11° WNW 19:36:33 10° W visible
09 Mar 7.9 05:09:02 10° SE 05:12:56 23° E 05:16:59 10° NNE visible
09 Mar 5.9 06:48:27 10° SSW 06:53:25 44° W 06:58:23 10° N visible
10 Mar 8.6 04:37:43 10° E 04:39:41 12° ENE 04:41:56 10° NE visible
10 Mar 5.5 06:14:34 10° S 06:19:47 79° W 06:25:02 10° N visible
11 Mar 6.2 05:41:13 10° SSE 05:46:18 57° E 05:51:25 10° N visible
